Regional Weather Roundup
Issued by NWS Charleston, SC

Current Version | Previous Version | Text Only | Print | Product List | Glossary Off
Versions: 1 2 3 4 5 6 7 8 9 10 11 12 13 14 15 16 17 18 19 20 21 22 23 24 25 26 27 28 29 30 31 32 33 34 35 36 37 38 39 40 41 42 43 44 45 46 47 48 49 50

000
ASUS42 KCHS 182325
RWRCHS

REGIONAL WEATHER ROUNDUP
NATIONAL WEATHER SERVICE CHARLESTON SC
700 PM EDT THU SEP 18 2014

NOTE: "FAIR" INDICATES FEW OR NO CLOUDS BELOW 12,000 FEET WITH NO
SIGNIFICANT WEATHER AND/OR OBSTRUCTIONS TO VISIBILITY.

NOT ALL STATIONS ARE QUALITY CONTROLLED BY THE NATIONAL
WEATHER SERVICE. USE DATA WITH CAUTION...ESPECIALLY
DEWPOINT OBSERVATIONS.

SCZ027-030-031-034>040-042>050-190000-
...SOUTH CAROLINA...

CITY           SKY/WX    TMP DP  RH WIND       PRES   REMARKS
N CHARLESTON   PTCLDY    76  69  79 NE5       29.94R
WATERFRONT PRK   N/A     79 N/A N/A NE8         N/A
FORT JOHNSON   NOT AVBL
MOUNT PLEASANT FAIR      75  73  94 CALM      29.94S FOG
JOHNS ISLAND   PTCLDY    77  77 100 CALM      29.94R
PINOPOLIS        N/A     86  70  58 E3        29.85F HX  90
MONCKS CORNER    N/A     79  73  83 CALM      29.95R
SUMMERVILLE    FAIR      79  72  78 CALM      29.95R
BEAUFORT MCAS  MOCLDY    70  67  90 E3        29.93S
BEAUFORT ARPT  FAIR      72  72 100 SW5       29.93R
HILTON HEAD IS PTCLDY    81  73  78 CALM      29.94R
GEORGETOWN     NOT AVBL
WALTERBORO     CLEAR     79  70  73 CALM      29.95R
ORANGEBURG     PTCLDY    78  69  73 CALM      29.94R
BARNWELL       FAIR      72  70  94 NE6       29.94F
AIKEN          FAIR      75  75 100 SE7       29.98S
MANNING        FAIR      77  73  88 CALM      29.94R
KINGSTREE      NOT AVBL
COLUMBIA       PTCLDY    81  65  58 SE8       29.93S
SUMTER         CLEAR     80  64  59 E3        29.93S
FLORENCE       PTCLDY    79  66  64 E7        29.95R
MYRTLE BEACH   PTCLDY    79  66  65 E13       29.96R
N MYRTLE BEACH PTCLDY    78  65  63 E12G21    29.96R

$$

GAZ063-065-086>088-099>101-113>116-118-119-134-136>141-150-190000-
...GEORGIA...

CITY           SKY/WX    TMP DP  RH WIND       PRES   REMARKS
SAVANNAH ARPT  MOCLDY    82  70  66 SE6       29.92R
HUNTER AAF     PTCLDY    81  72  76 SE3       29.90S
FORT STEWART   PTCLDY    81  73  76 NE5       29.91R
STATESBORO     NOT AVBL
SYLVANIA       CLEAR     81  76  86 CALM      29.93R
CLAXTON        FAIR      79  77  94 CALM      29.92S
THOMSON        CLEAR     78  76  92 CALM      29.98S
AUGUSTA-BUSH   RAIN      76  71  85 W7        29.94R
AUGUSTA-DANIEL MOCLDY    81  66  60 E5        29.95R
SWAINSBORO     FAIR      81  73  78 NW3       29.94S
VIDALIA        CLEAR     79  72  78 CALM      29.94R
ALMA           PTCLDY    81  70  69 NW6       29.92S
WAYCROSS       MOCLDY    82  73  74 N6        29.92R
JESUP          CLOUDY    82  77  83 E3        29.92R HX  91
BRUNSWICK      PTCLDY    77  72  83 CALM      29.92R
SAINT SIMONS   PTCLDY    81  72  74 E5        29.91R

$$

SCZ027-028-034-036>038-045-046-048>050-GAZ119-141-190000-
...LAKE AND SUPPLEMENTAL COASTAL OBSERVATIONS...

STATION/POSITION TIME  TEMP    WIND        PRES    WAVE   SWELL
                       AIR SEA DIR/SP/G            HT/PER HT/PER/DIR
                 (UTC) (F)     (DEG/KT/KT) (MB)    (FT/S) (FT/S/D)
UPR LAKE MARION  NOT AVBL
WINYAH BAY       2300   79      80/ 10     1014.0S
LAKE MURRAY      2300   80      40/  2/  3 1013.2S
ACE BASIN NERRS  2300   77      60/  6     1014.0R
FORT PULASKI     2300   81     100/  4/  5 1013.6R
SAPELO ISLAND    2300   81     100/  3     1013.0S

$$

ANZ835-935-AMZ111-154-330-350-352-354-374-450-454-472-190000-
...C-MAN AND BUOY OBSERVATIONS...

STATION/POSITION TIME  TEMP    WIND        PRES    WAVE   SWELL
                       AIR SEA DIR/SP/G            HT/PER HT/PER/DIR
                 (UTC) (F)     (DEG/KT/KT) (MB)    (FT/S) (FT/S/D)
FOLLY BEACH CMAN 2300   80      70/  8/ 10 1014.1R
BUOY 41004       2300   80 83   50/ 10/ 12 1013.2R   3/10   3/10
BUOY 41008       2300   82 85  100/  6/  8 1012.9R   2/13   2/ 90/13
5E ST. MARYS GA  2300      86                N/A     2/13   2/ 90/13
FRYING PAN BUOY  NOT AVBL
BUOY 41025       2300   74      10/ 17/ 23 1015.2R   5/ 5   2/ 50/12
CAPE LOOKOUT NC  2300   75      50/ 17/ 18 1015.6R
BUOY 41002       2247   79 83   40/  8/ 10 1014.2R   3/10   3/ 80/10
BUOY 41010       2300   82 85   60/  8/ 10 1012.8R   4/12   3/ 60/12
BUOY 41012       NOT AVBL
ST AUGUSTINE FL  2300   82     120/ 13/ 15 1012.9S
CAPERS NEARSHORE 2200   80      80/  8/  8   N/A
FRIPP NEARSHORE  NOT AVBL


$$



USA.gov is the U.S. government's official web portal to all federal, state and local government web resources and services.